Location: Croagnes
(43.9363°N, 5.3265°E)
Time: 21:31:01
(UTC+00:00)

Meteor 1-16 Rocket - Pass Details

Date: 29 September 2020
Orbit: 790 x 908 km, 81.2° (Epoch: 22 October)

Event Time Altitude Azimuth Distance (km) Brightness Sun altitude
Exits shadow 19:53:51 27° 34° (NE) 1,662 5.6 -27.4°
Drops below altitude 10° 19:56:34 10° 21° (NNE) 2,573 6.7 -27.8°
Sets 19:59:04 0° 16° (NNE) 3,504 7.5 -28.2°
